Overview Statistics Trail Chart Weather Telemetry Raw packets
 

This is the latest recevied weather packets stored in our database for station/object KI5NXU. If no packets are shown the sender has not sent any weather packets the latest 10 day(s).

<< 1 2 3 4 5 6 >>
Time Temp. Humidity Pressure Rain* Wind** Luminosity Snow
1788396218 35.56° C 41% 1011.6 hPa 0 mm - 9 W/m² -
1788395913 35.56° C 41% 1011.5 hPa 0 mm - 13 W/m² -
1788395613 35.56° C 40% 1011.4 hPa 0 mm - 16 W/m² -
1788395312 36.11° C 40% 1011.3 hPa 0 mm - 21 W/m² -
1788395007 36.67° C 39% 1011.2 hPa 0 mm - 25 W/m² -
1788394702 36.67° C 38% 1011.2 hPa 0 mm - 33 W/m² -
1788394397 36.67° C 38% 1011.3 hPa 0 mm - 41 W/m² -
1788394092 37.22° C 37% 1011 hPa 0 mm - 46 W/m² -
1788393786 37.78° C 37% 1011.4 hPa 0 mm - 58 W/m² -
1788393484 37.78° C 37% 1010.9 hPa 0 mm - 47 W/m² -
1788393180 37.78° C 36% 1011.1 hPa 0 mm - 79 W/m² -
1788392874 37.78° C 36% 1011.2 hPa 0 mm - 96 W/m² -
1788392573 38.33° C 36% 1010.9 hPa 0 mm - 114 W/m² -
1788392267 38.33° C 36% 1011.3 hPa 0 mm - 86 W/m² -
1788391962 38.33° C 36% 1011.1 hPa 0 mm - 138 W/m² -
1788391661 37.78° C 36% 1011.1 hPa 0 mm - 140 W/m² -
1788391360 38.89° C 36% 1011.1 hPa 0 mm - 150 W/m² -
1788391060 38.89° C 36% 1011.2 hPa 0 mm - 181 W/m² -
1788390755 38.89° C 35% 1011.1 hPa 0 mm - 192 W/m² -
1788390455 38.89° C 36% 1010.9 hPa 0 mm - 212 W/m² -
1788390154 38.89° C 36% 1011.1 hPa 0 mm - 224 W/m² -
1788389849 38.89° C 36% 1011.3 hPa 0 mm - 258 W/m² -
1788389544 38.89° C 36% 1011.3 hPa 0 mm - 290 W/m² -
1788389242 38.33° C 36% 1011 hPa 0 mm - 306 W/m² -
1788388938 37.22° C 38% 1011 hPa 0 mm - 276 W/m² -

* Rain latest hour (hover to see other rain measurements)
** Current wind speed in m/s (hover to see current wind gust speed)